| time (UTC) | temp F | wind direction | speed MPH | gust MPH | rain 1hr in | rain 24hr in | rain mn in | humidity % | barometer mb |
| 20260505191044 | 55 | 0.0 | 2.0 | 0.00 | 0.48 | 0.48 | 99 | 1005.6 | |
| 20260505184034 | 55 | 0.0 | 0.0 | 0.01 | 0.48 | 0.48 | 99 | 1005.3 | |
| 20260505183031 | 55 | 0.0 | 0.0 | 0.01 | 0.48 | 0.48 | 99 | 1005.3 | |
| 20260505182028 | 55 | 180 | 0.0 | 2.0 | 0.01 | 0.48 | 0.48 | 99 | 1005.2 |
| 20260505181025 | 56 | 0.0 | 0.0 | 0.02 | 0.48 | 0.48 | 99 | 1005.1 | |
| 20260505174016 | 55 | 0.0 | 2.0 | 0.09 | 0.47 | 0.47 | 99 | 1004.7 | |
| 20260505172110 | 56 | 191 | 1.0 | 5.0 | 0.41 | 0.47 | 0.47 | 99 | 1004.6 |
| 20260505171106 | 56 | 274 | 1.0 | 4.0 | 0.45 | 0.46 | 0.46 | 99 | 1004.9 |
| 20260505170103 | 56 | 251 | 2.0 | 8.0 | 0.41 | 0.43 | 0.43 | 99 | 1005.1 |
| 20260505165100 | 56 | 261 | 2.0 | 8.0 | 0.39 | 0.40 | 0.40 | 99 | 1005.2 |
| 20260505164057 | 57 | 306 | 2.0 | 5.0 | 0.37 | 0.38 | 0.38 | 99 | 1005.3 |
| 20260505162050 | 60 | 221 | 3.0 | 10.0 | 0.05 | 0.06 | 0.06 | 95 | 1005.1 |
| 20260505161107 | 61 | 0.0 | 0.0 | 0.00 | 0.01 | 0.01 | 91 | 1004.2 | |
| 20260505153035 | 63 | 0.0 | 2.0 | 0.00 | 0.01 | 0.01 | 87 | 1004.0 | |
| 20260505151028 | 64 | 0 | 0.0 | 3.0 | 0.00 | 0.01 | 0.01 | 86 | 1004.0 |
| 20260505140106 | 74 | 0.0 | 2.0 | 0.00 | 0.01 | 0.01 | 57 | 1004.2 | |
| 20260505124121 | 75 | 338 | 1.0 | 4.0 | 0.00 | 0.01 | 0.01 | 55 | 1005.1 |
| 20260505123038 | 76 | 249 | 0.0 | 3.0 | 0.00 | 0.01 | 0.01 | 54 | 1005.1 |
| 20260505122035 | 77 | 92 | 2.0 | 5.0 | 0.00 | 0.01 | 0.01 | 52 | 1005.3 |
| 20260505121031 | 76 | 113 | 1.0 | 3.0 | 0.00 | 0.01 | 0.01 | 52 | 1005.3 |
| 20260505120028 | 75 | 90 | 1.0 | 3.0 | 0.00 | 0.01 | 0.01 | 55 | 1005.4 |
| 20260505114022 | 74 | 0 | 1.0 | 3.0 | 0.00 | 0.01 | 0.01 | 59 | 1005.7 |
| 20260505113019 | 75 | 175 | 1.0 | 4.0 | 0.00 | 0.01 | 0.01 | 56 | 1005.7 |
| 20260505112016 | 74 | 52 | 1.0 | 4.0 | 0.00 | 0.01 | 0.01 | 57 | 1005.8 |
| 20260505111113 | 74 | 20 | 1.0 | 4.0 | 0.00 | 0.01 | 0.01 | 58 | 1006.0 |
| 20260505110110 | 73 | 37 | 1.0 | 3.0 | 0.00 | 0.01 | 0.01 | 57 | 1006.0 |
| 20260505101054 | 71 | 67 | 1.0 | 5.0 | 0.00 | 0.01 | 0.01 | 70 | 1006.6 |
| 20260505100051 | 69 | 55 | 0.0 | 3.0 | 0.00 | 0.01 | 0.01 | 72 | 1006.8 |
| 20260505095047 | 69 | 0 | 1.0 | 4.0 | 0.00 | 0.01 | 0.01 | 76 | 1006.9 |
| 20260505094044 | 69 | 90 | 0.0 | 3.0 | 0.00 | 0.01 | 0.01 | 75 | 1006.8 |
| 20260505093041 | 68 | 73 | 0.0 | 4.0 | 0.00 | 0.01 | 0.01 | 76 | 1006.9 |
| 20260505092037 | 68 | 80 | 1.0 | 4.0 | 0.00 | 0.01 | 0.01 | 78 | 1007.0 |
| 20260505090031 | 66 | 170 | 0.0 | 3.0 | 0.00 | 0.01 | 0.01 | 80 | 1007.2 |
| 20260505084025 | 65 | 144 | 2.0 | 6.0 | 0.00 | 0.01 | 0.01 | 82 | 1007.4 |
| 20260505083022 | 65 | 338 | 1.0 | 4.0 | 0.00 | 0.01 | 0.01 | 83 | 1007.5 |
| 20260505082022 | 64 | 113 | 0.0 | 3.0 | 0.00 | 0.01 | 0.01 | 84 | 1007.6 |
| 20260505081016 | 63 | 0.0 | 2.0 | 0.00 | 0.01 | 0.01 | 87 | 1007.7 | |
| 20260505080113 | 62 | 0.0 | 0.0 | 0.00 | 0.01 | 0.01 | 89 | 1007.8 | |
| 20260505075130 | 61 | 0 | 0.0 | 2.0 | 0.00 | 0.01 | 0.01 | 89 | 1008.0 |
| 20260505072100 | 61 | 0.0 | 2.0 | 0.00 | 0.01 | 0.01 | 90 | 1007.9 | |
| 20260505071120 | 60 | 0 | 0.0 | 3.0 | 0.00 | 0.01 | 0.01 | 90 | 1008.0 |
| 20260505070054 | 60 | 0.0 | 0.0 | 0.00 | 0.01 | 0.01 | 93 | 1008.0 | |
| 20260505065050 | 59 | 0.0 | 2.0 | 0.00 | 0.01 | 0.01 | 92 | 1008.0 | |
| 20260505064047 | 59 | 0 | 0.0 | 2.0 | 0.00 | 0.01 | 0.01 | 93 | 1008.0 |
| 20260505063044 | 58 | 0.0 | 2.0 | 0.00 | 0.01 | 0.01 | 94 | 1007.9 | |
| 20260505061038 | 56 | 0.0 | 0.0 | 0.00 | 0.01 | 0.01 | 98 | 1007.9 | |
| 20260505060034 | 56 | 0.0 | 0.0 | 0.00 | 0.01 | 0.01 | 99 | 1007.9 | |
| 20260505055052 | 56 | 0.0 | 0.0 | 0.00 | 0.01 | 0.01 | 99 | 1007.9 | |
| 20260505054029 | 56 | 0.0 | 0.0 | 0.00 | 0.01 | 0.01 | 99 | 1008.0 | |
| 20260505052022 | 55 | 0.0 | 0.0 | 0.00 | 0.01 | 0.01 | 99 | 1007.8 | |
| 20260505051039 | 55 | 0.0 | 0.0 | 0.00 | 0.01 | 0.01 | 99 | 1007.9 | |
| 20260505040057 | 54 | 0.0 | 2.0 | 0.00 | 0.01 | 0.01 | 99 | 1008.0 | |
| 20260505035054 | 54 | 0.0 | 0.0 | 0.00 | 0.01 | 0.01 | 99 | 1007.9 | |
| 20260505034051 | 54 | 0.0 | 0.0 | 0.00 | 0.01 | 0.01 | 99 | 1008.0 | |
| 20260505033047 | 54 | 0.0 | 0.0 | 0.00 | 0.01 | 0.01 | 99 | 1008.2 | |
| 20260505032045 | 54 | 0.0 | 0.0 | 0.00 | 0.01 | 0.01 | 99 | 1008.3 | |
| 20260505031041 | 54 | 0.0 | 2.0 | 0.01 | 0.01 | 0.01 | 99 | 1008.4 | |
| 20260505030038 | 54 | 0.0 | 0.0 | 0.01 | 0.01 | 0.01 | 99 | 1008.6 | |
| 20260505025035 | 55 | 0.0 | 0.0 | 0.01 | 0.01 | 0.01 | 99 | 1008.7 | |
| 20260505024032 | 55 | 0.0 | 0.0 | 0.01 | 0.01 | 0.01 | 99 | 1008.8 | |
| 20260505023029 | 55 | 0.0 | 0.0 | 0.01 | 0.01 | 0.01 | 99 | 1008.9 | |
| 20260505022025 | 55 | 225 | 0.0 | 2.0 | 0.01 | 0.01 | 0.01 | 99 | 1009.0 |
| 20260505021022 | 55 | 0.0 | 0.0 | 0.00 | 0.00 | 0.00 | 99 | 1008.9 | |
| 20260505020019 | 55 | 0.0 | 0.0 | 0.00 | 0.00 | 0.00 | 99 | 1009.2 | |
| 20260505014113 | 55 | 0.0 | 0.0 | 0.00 | 0.00 | 0.00 | 99 | 1009.6 | |
| 20260505013110 | 55 | 0.0 | 0.0 | 0.00 | 0.00 | 0.00 | 99 | 1009.7 | |
| 20260505012106 | 55 | 0.0 | 0.0 | 0.00 | 0.00 | 0.00 | 99 | 1009.8 | |
| 20260505011106 | 55 | 0.0 | 0.0 | 0.00 | 0.00 | 0.00 | 99 | 1009.8 | |
| 20260505010100 | 55 | 0.0 | 0.0 | 0.00 | 0.00 | 0.00 | 99 | 1009.9 | |
| 20260505004054 | 56 | 0.0 | 0.0 | 0.00 | 0.00 | 0.00 | 97 | 1009.9 | |
| 20260505003051 | 56 | 0.0 | 0.0 | 0.00 | 0.00 | 0.00 | 97 | 1010.1 | |
| 20260505002048 | 57 | 0.0 | 0.0 | 0.00 | 0.00 | 0.00 | 96 | 1010.0 | |
| 20260505001105 | 57 | 0.0 | 0.0 | 0.00 | 0.00 | 0.00 | 94 | 1010.1 | |
| 20260505000041 | 57 | 0.0 | 0.0 | 0.00 | 0.00 | 0.00 | 92 | 1009.9 | |
| 20260504235038 | 57 | 0.0 | 0.0 | 0.00 | 0.00 | 0.00 | 91 | 1010.1 | |
| 20260504233032 | 58 | 0.0 | 0.0 | 0.00 | 0.00 | 0.00 | 88 | 1010.2 | |
| 20260504232029 | 58 | 0.0 | 0.0 | 0.00 | 0.00 | 0.00 | 89 | 1010.2 | |
| 20260504231025 | 58 | 0.0 | 0.0 | 0.00 | 0.00 | 0.00 | 87 | 1010.2 | |
| 20260504230022 | 58 | 0.0 | 0.0 | 0.00 | 0.00 | 0.00 | 88 | 1010.3 | |
| 20260504225019 | 58 | 0.0 | 1.0 | 0.00 | 0.00 | 0.00 | 88 | 1010.3 | |
| 20260504224036 | 58 | 0.0 | 0.0 | 0.00 | 0.00 | 0.00 | 86 | 1010.5 | |
| 20260504223113 | 58 | 0.0 | 0.0 | 0.00 | 0.00 | 0.00 | 88 | 1010.5 | |
| 20260504222110 | 57 | 0.0 | 0.0 | 0.00 | 0.00 | 0.00 | 88 | 1010.5 | |
| 20260504221110 | 57 | 0.0 | 0.0 | 0.00 | 0.00 | 0.00 | 89 | 1010.5 | |
| 20260504220124 | 58 | 0.0 | 0.0 | 0.00 | 0.00 | 0.00 | 90 | 1010.6 | |
| 20260504214057 | 59 | 0.0 | 0.0 | 0.00 | 0.00 | 0.00 | 87 | 1010.7 | |
| 20260504213054 | 59 | 0.0 | 0.0 | 0.00 | 0.00 | 0.00 | 84 | 1010.7 | |
| 20260504212051 | 59 | 0.0 | 0.0 | 0.00 | 0.00 | 0.00 | 86 | 1011.0 | |
| 20260504211048 | 60 | 0.0 | 0.0 | 0.00 | 0.00 | 0.00 | 83 | 1011.0 | |
| 20260504210044 | 59 | 0.0 | 0.0 | 0.00 | 0.00 | 0.00 | 83 | 1011.0 | |
| 20260504205041 | 60 | 0.0 | 0.0 | 0.00 | 0.00 | 0.00 | 84 | 1010.9 | |
| 20260504204038 | 59 | 0.0 | 0.0 | 0.00 | 0.00 | 0.00 | 82 | 1010.8 | |
| 20260504203055 | 59 | 0.0 | 2.0 | 0.00 | 0.00 | 0.00 | 84 | 1010.7 | |
| 20260504202032 | 58 | 0.0 | 0.0 | 0.00 | 0.00 | 0.00 | 87 | 1010.7 | |
| 20260504201048 | 58 | 0.0 | 0.0 | 0.00 | 0.00 | 0.00 | 87 | 1010.7 | |
| 20260504200025 | 58 | 0.0 | 0.0 | 0.00 | 0.00 | 0.00 | 87 | 1010.7 | |
| 20260504194017 | 57 | 0.0 | 0.0 | 0.00 | 0.00 | 0.00 | 89 | 1010.7 | |
| 20260504192109 | 59 | 0.0 | 0.0 | 0.00 | 0.00 | 0.00 | 87 | 1010.6 |